Terminal Aerodrome Forecast
Issued by NWS Wilmington, OH

Home | Current Version | Previous Version | Text Only | Print | Product List | Glossary On
Versions: 1 2 3 4 5 6 7 8 9 10 11 12 13 14 15 16 17 18 19 20 21
000
FTUS41 KILN 230147 AAC
TAFDAY
TAF AMD
KDAY 230147Z 2302/2324 17016G24KT 4SM -SHRA BR VCTS OVC025CB
      TEMPO 2302/2303 19025G40KT 2SM +TSRA BR OVC012CB
     FM230400 22012G20KT P6SM SCT150
     FM230800 22012G22KT P6SM VCSH BKN050
     FM231100 22016G28KT P6SM VCSH OVC022
     FM231800 25018G28KT P6SM VCSH OVC022=

USA.gov is the U.S. government's official web portal to all federal, state and local government web resources and services.